User: anonymous   Login
Location: Unspecified
(0.0000°N, 0.0000°E)
Time: 02:22:58
(UTC+02:00)
Language:

Cosmos 1092 Rocket - Orbit

View from above orbital plane
View from above orbital plane
View from above satellite
View from above satellite

Ground track
Ground track

The orbit data is extracted from the following two-line orbital elements,

1 11327U 79030B   15114.52611939  .00000025  00000-0  95482-5 0  9991
2 11327 082.9496 158.4848 0026912 213.5323 255.5400 13.76958714811159
Epoch (UTC): 24 April 2015 12:37:36
Eccentricity: 0.0026912
inclination: 82.9496°
perigee height: 955 km
apogee height: 994 km
right ascension of ascending node: 158.4848°
argument of perigee: 213.5323°
revolutions per day: 13.76958714
mean anomaly at epoch: 255.5400°
orbit number at epoch: 81115

The dashed part of the orbit path shows where the satellite is in the earth's shadow,  

DLR